Regional Weather Roundup
Issued by NWS

Home | Current Version | Previous Version | Graphics & Text | Print | Product List | Glossary Off
Versions: 1 2 3 4 5 6 7 8 9 10 11 12 13 14 15 16 17 18 19 20 21 22 23 24 25 26 27 28 29 30 31 32 33 34 35 36 37 38 39 40 41 42 43 44 45 46 47 48 49 50

000
ASUS43 KMPX 050910
RWRMN
WEATHER ROUNDUP FOR MINNESOTA
NATIONAL WEATHER SERVICE TWIN CITIES/CHANHASSEN MN
400 AM CDT THU MAY 05 2016


NOTE: "FAIR" INDICATES FEW OR NO CLOUDS BELOW 12,000 FEET WITH NO
SIGNIFICANT WEATHER AND/OR OBSTRUCTIONS TO VISIBILITY. N/A MEANS
CURRENT SKY AND/OR WEATHER CONDITIONS ARE NOT AVAILABLE.

MNZ060>063-068>070-051000-
   Twin Cities Metro

CITY           SKY/WX    TMP DP  RH WIND       PRES   REMARKS
TWIN CITIES    CLEAR     47  26  44 S6        30.02S
ST PAUL        CLEAR     43  33  68 CALM      30.03S
CRYSTAL        CLEAR     41  31  67 CALM      30.01R
BLAINE         CLEAR     43  34  70 CALM      30.01S
EDEN PRAIRIE   CLEAR     46  33  60 SE5       30.01S
SOUTH ST PAUL  CLEAR     41  33  72 CALM      30.02S
LAKE ELMO      FAIR      36  32  87 CALM      30.02F
$$
MNZ001>005-007-008-013>017-022>024-027-028-051000-
   Northwest Minnesota

CITY           SKY/WX    TMP DP  RH WIND       PRES   REMARKS
BEMIDJI        PTCLDY    44  26  49 CALM      29.96R
HALLOCK        CLEAR     50  27  40 S10       29.80F
ROSEAU         CLOUDY    52  32  46 S10       29.86F
WARROAD        CLOUDY    48  32  53 S13       29.88S
THIEF RVR FALL PTCLDY    50  28  43 S10       29.90S
CROOKSTON      CLEAR     52  30  43 S13       29.88F
FOSSTON        PTCLDY    50  27  40 SE7       29.94R
DETROIT LAKES  CLEAR     48  37  66 SE6       29.95S
MOORHEAD       CLEAR     50  30  46 SE8       29.93S
PARK RAPIDS    CLEAR     47  27  45 SE6       29.95F
MAHNOMEN       FAIR      49  32  51 SE7       29.92S
$$
MNZ006-009>011-018-025>026-051000-
   North Central Minnesota

CITY           SKY/WX    TMP DP  RH WIND       PRES   REMARKS
BAUDETTE       MOCLDY    51  23  33 S7        29.91S
FLAG ISLAND    LGT RAIN  48  36  61 S20       29.85F
INTL FALLS     PTCLDY    45  30  55 S8        29.93F
WASKISH        PTCLDY    50  21  32 SE3       29.93S
BIG FORK       PTCLDY    45  27  49 E3        29.96R
LONGVILLE      PTCLDY    36  34  93 CALM      29.97S
GRAND RAPIDS   MOCLDY    45  27  49 S9        29.97S
CRANE LAKE     CLOUDY    37  37 100 S3        29.97F
ORR            RAIN      43  28  56 CALM      29.95R
COOK           LGT RAIN  43  34  70 CALM      29.98R
WALKER         FAIR      42  29  60 E3        29.96S
$$
MNZ012-019>021-037-051000-
   Northeast Minnesota

CITY           SKY/WX    TMP DP  RH WIND       PRES   REMARKS
DULUTH         CLOUDY    39  30  70 SE3       29.99S
ELY            CLOUDY    34  30  86 CALM      29.98R
HIBBING        LGT RAIN  37  32  82 CALM      29.97S
EVELETH        DRIZZLE   37  32  81 CALM      30.00R
DULUTH HARBOR  PTCLDY    39  34  81 E5        30.02S
TWO HARBORS    MOCLDY    34  28  80 CALM      29.98S
SILVER BAY     PTCLDY    28  27  93 CALM      29.98S
GRAND MARAIS     N/A     34  29  82 W3        30.00F
G MARAIS ARPRT CLOUDY    28  25  86 CALM      29.98S
$$
MNZ029>031-032-039>041-046>048-054>057-064-051000-
   West Central Minnesota

CITY           SKY/WX    TMP DP  RH WIND       PRES   REMARKS
FERGUS FALLS   CLEAR     48  36  61 S7        29.94S
WHEATON        CLEAR     52  34  50 S6        29.97S
MORRIS         CLEAR     41  32  70 SE6       29.97S
ALEXANDRIA     CLEAR     46  29  51 S7        29.99S
ELBOW LAKE     FAIR      47  34  61 S7        29.97S
WADENA         PTCLDY    43  28  56 CALM      29.96S
GLENWOOD       CLEAR     46  32  57 S6        29.99S
APPLETON       CLEAR     43  37  81 CALM      29.98S
BENSON         CLEAR     43  30  61 CALM      29.99R
ORTONVILLE     CLEAR     45  34  65 S3        29.97S
MADISON        CLEAR     45  34  65 SW3       29.98S
WILLMAR        FAIR      45  34  65 CALM      30.00F
$$
MNZ033>034-036-042>043-049>051-058-059-051000-
   Central Minnesota

CITY           SKY/WX    TMP DP  RH WIND       PRES   REMARKS
ST CLOUD       CLEAR     37  32  82 S3        29.99S
SAUK CENTRE    FAIR      38  32  79 CALM      29.99S
PAYNESVILLE    CLEAR     37  31  81 CALM      30.01R
AITKIN         CLOUDY    39  30  70 CALM      29.97S
PINE RIVER     CLOUDY    37  32  81 CALM      30.01R
BRAINERD       CLOUDY    40  32  73 CALM      29.99R
STAPLES        PTCLDY    37  30  75 CALM      29.97S
LONG PRAIRIE   FAIR      37  34  87 CALM      29.98F
LITTLE FALLS   CLOUDY    36  30  80 CALM      29.99S
LITCHFIELD     CLEAR     45  36  70 CALM      30.00S
BUFFALO        CLEAR     39  33  77 CALM      30.02R
MAPLE LAKE     CLEAR     38  35  86 CALM      30.01S
HUTCHINSON     CLEAR     40  33  75 CALM      30.01S
$$
MNZ037-044-045-052-053-051000-
   East Central Minnesota

CITY           SKY/WX    TMP DP  RH WIND       PRES   REMARKS
PRINCETON      CLEAR     39  30  70 CALM      30.00S
MORA           CLOUDY    36  32  87 CALM      30.03R
CAMBRIDGE      CLEAR     48  30  49 CALM      29.99R
RUSH CITY      PTCLDY    37  29  73 CALM      30.01R
MOOSE LAKE     RAIN      37  34  87 CALM      29.96F
HINCKLEY       CLOUDY    37  34  87 CALM      30.01R
CLOQUET        MOCLDY    37  30  75 CALM      29.99R
MCGREGOR       CLOUDY    43  32  65 SW5       29.99F
$$
MNZ071>073-080-081-089-090-097-098-051000-
   Southwest Minnesota

CITY           SKY/WX    TMP DP  RH WIND       PRES   REMARKS
MONTEVIDEO     CLEAR     43  34  70 SW5       30.01S
GRANITE FALLS  CLEAR     43  34  69 CALM      30.01S
CANBY          CLEAR     49  37  61 SW5       30.00S
MARSHALL       CLEAR     43  35  73 SW6       30.00S
REDWOOD FALLS  CLEAR     44  30  57 CALM      30.00S
OLIVIA         CLEAR     41  30  65 CALM      29.99S
PIPESTONE      PTCLDY    46  36  66 CALM      30.01S
WINDOM         CLEAR     39  36  87 CALM      30.02R
WORTHINGTON    PTCLDY    47  34  60 CALM      30.02S
JACKSON        PTCLDY    46  32  57 CALM      30.02R
TRACY          CLEAR     47  34  60 SW6       30.01S
SLAYTON        CLEAR     44  33  65 CALM      30.02S
$$
MNZ065>067-074>077-082>085-091>093-051000-
   South Central Minnesota

CITY           SKY/WX    TMP DP  RH WIND       PRES   REMARKS
MANKATO        CLEAR     46  32  57 CALM      30.02R
NEW ULM        CLEAR     45  30  57 CALM      30.00S
ST JAMES       CLEAR     37  30  75 CALM      30.02R
FAIRMONT       CLEAR     45  32  61 CALM      30.01R
GLENCOE        CLEAR     42  33  70 E5        30.00S
FARIBAULT      CLEAR     37  30  75 CALM      30.02S
OWATONNA       CLEAR     39  27  60 CALM      30.03R
WASECA         CLEAR     37  28  70 SE3       30.04R
ALBERT LEA     CLEAR     39  30  70 CALM      30.02R
$$
MNZ078>079-086>088-094>096-051000-
   Southeast Minnesota

CITY           SKY/WX    TMP DP  RH WIND       PRES   REMARKS
ROCHESTER      CLEAR     45  23  42 N3        30.02R
RED WING       CLEAR     36  30  80 CALM      30.02R
STANTON        CLEAR     35  29  78 CALM      30.01S
DODGE CENTER   PTCLDY    36  23  60 CALM      30.02R
WINONA         CLEAR     37  32  81 CALM      30.02R
AUSTIN         CLEAR     37  30  75 CALM      30.02R
PRESTON        CLEAR     42  25  52 CALM      30.02R
$$
ABBREVIATIONS USED IN REMARKS
   TC - TEMPERATURES IN CELSIUS
  WCI - WIND CHILL INDEX
   HX - HEAT INDEX
  VSB - VISIBILITY
$$



USA.gov is the U.S. government's official web portal to all federal, state and local government web resources and services.